Wind_Speed
14 14 15 16 16 17 17 17 17 18 18 18 17 17 17 18 18 19 19 19 19 19 19 19 19 19 19 19 19 19 19 19 18 18 19 20 20 21
15 16 16 17 17 18 18 18 19 19 20 20 19 19 19 20 20 20 21 21 21 21 21 21 21 21 20 20 20 19 19 19 19 20 20 21 22 22
17 17 18 18 19 19 20 20 20 20 21 21 22 21 21 22 22 22 22 22 22 22 22 22 22 21 20 20 20 20 20 20 21 21 22 22 22 23
19 19 19 20 20 21 21 21 22 22 22 22 22 23 23 23 24 23 24 24 24 24 23 23 23 22 22 21 21 21 21 21 22 23 23 24 24 25
20 20 21 21 22 22 22 22 23 23 23 24 24 24 24 25 25 24 25 24 24 25 25 24 24 24 24 23 23 23 23 23 24 24 24 25 26 26
22 22 22 23 23 23 23 24 24 25 25 25 25 25 25 25 25 26 25 25 25 25 25 25 25 25 25 25 24 24 24 25 26 26 26 26 27 27
24 24 24 24 24 24 24 25 25 25 25 25 25 25 25 26 26 27 26 26 26 26 26 25 25 26 26 26 26 26 26 26 27 27 27 27 27 28
25 26 26 26 25 25 25 25 25 26 25 25 25 26 26 26 27 27 27 27 26 26 26 26 26 26 26 26 27 28 28 27 27 28 28 28 28 28
25 26 26 26 27 26 26 26 26 26 27 27 27 27 27 26 27 26 27 26 25 26 26 25 26 26 26 26 26 27 28 28 28 28 29 30 29 29
26 26 27 27 26 26 26 27 27 26 26 27 28 28 27 26 26 27 26 26 26 26 26 25 25 26 26 26 25 26 27 27 28 28 29 30 30 30
26 27 27 27 26 26 26 26 27 27 26 27 27 27 27 27 27 27 27 27 27 27 27 27 27 27 27 27 26 26 26 26 27 28 30 31 31 31
27 27 27 26 26 26 26 26 27 27 27 27 27 27 27 28 28 28 28 28 28 28 28 27 28 28 27 26 27 27 27 27 28 29 30 31 31 32
27 27 27 27 27 28 28 27 27 27 27 28 28 28 28 28 28 28 29 29 29 29 29 28 28 27 27 27 27 28 28 28 29 29 30 31 32 33
27 27 27 28 28 28 29 29 29 29 29 29 29 29 29 29 30 30 30 29 29 30 30 30 29 28 28 28 28 29 29 29 30 30 31 31 31 31
28 28 28 29 29 29 29 29 30 30 30 30 30 30 31 30 30 30 31 31 31 30 30 30 29 29 29 30 30 30 30 30 30 30 30 31 30 31
29 29 30 30 30 30 30 30 30 30 30 30 29 29 29 29 28 29 30 30 30 29 28 29 29 30 30 30 31 31 31 31 31 31 32 32 31 32
30 30 31 31 30 30 29 29 29 28 29 29 29 28 28 28 28 27 28 29 29 29 28 29 29 30 30 31 31 31 31 31 31 32 32 32 33 33
31 31 30 30 29 29 28 28 28 28 28 28 28 28 28 28 28 28 28 28 28 28 29 29 30 30 30 31 31 32 32 32 32 32 32 32 33 34
31 31 30 30 29 29 29 29 29 29 28 28 28 29 29 29 29 28 28 27 27 28 28 29 30 31 31 32 32 32 32 32 32 32 32 32 33 33
31 31 31 30 30 29 29 29 28 29 29 29 29 29 29 29 29 28 28 27 27 28 28 29 29 30 31 32 32 32 32 33 33 33 33 33 33 33
31 31 31 31 30 30 29 29 29 29 29 29 30 29 29 29 28 28 28 28 28 27 28 28 29 30 31 31 31 31 31 32 32 32 32 32 32 32
31 31 31 31 31 30 29 30 30 30 29 29 29 29 29 29 28 28 28 28 28 29 29 29 29 29 29 29 29 30 29 29 29 29 30 30 31 31
31 31 31 30 30 30 30 30 30 29 29 29 29 29 29 28 28 28 28 29 29 28 28 28 28 28 28 28 28 28 28 29 29 29 29 28 29 29
Wind_Direction
301 299 298 299 298 297 297 297 297 296 293 291 289 289 289 288 289 289 290 289 288 286 284 284 283 284 282 278 275 271 266 263 260 257 255 253 252 250
299 298 297 296 297 298 298 297 295 294 294 291 288 288 288 287 286 288 288 287 287 285 283 283 282 280 280 277 274 271 267 264 259 257 256 255 254 253
297 295 295 295 296 296 297 296 295 296 295 291 288 286 286 286 285 286 287 286 285 284 283 283 280 279 280 278 274 268 264 262 259 258 257 255 255 256
295 293 293 294 295 295 295 294 293 293 293 291 289 286 285 285 285 286 286 286 284 284 284 283 283 279 278 276 275 270 266 262 260 259 259 257 256 256
292 292 292 293 295 295 293 293 293 292 292 290 287 286 285 285 284 285 286 285 284 283 283 282 281 278 277 275 274 273 268 265 262 261 261 259 256 256
292 292 292 292 293 294 293 293 292 291 290 289 287 285 285 285 283 284 284 282 284 283 281 280 279 278 276 274 273 272 269 265 264 261 261 260 259 258
293 291 292 292 292 293 293 292 291 289 288 287 286 285 284 284 283 283 282 281 282 281 280 279 278 277 275 273 271 270 267 265 264 262 261 262 262 262
293 293 292 292 292 291 291 290 290 289 288 287 287 286 284 284 283 282 281 281 281 280 280 279 279 278 277 275 272 269 266 264 263 261 261 261 261 261
296 297 296 293 291 290 290 289 289 288 286 286 286 287 285 284 282 282 282 283 282 282 281 279 278 278 277 278 275 272 266 264 263 263 262 262 261 261
298 299 297 296 291 289 289 288 288 287 286 286 285 285 284 283 282 282 281 282 283 284 281 280 278 277 277 276 275 273 268 264 263 263 263 263 263 264
300 299 299 297 292 291 290 289 289 287 286 286 285 284 283 283 283 283 282 282 283 284 283 281 279 277 277 276 275 273 270 266 265 264 264 264 264 264
301 300 300 298 295 293 293 291 290 288 286 287 286 286 284 284 284 282 281 282 282 282 283 282 280 278 276 275 274 272 270 269 267 267 267 266 265 264
301 301 301 300 297 295 294 294 292 292 290 289 287 286 286 284 283 282 281 281 281 281 282 281 280 279 277 276 274 273 273 272 269 268 267 267 266 265
300 301 301 301 299 297 295 294 292 291 290 290 289 287 286 285 284 281 281 281 281 279 279 278 277 277 277 275 274 273 272 272 271 270 269 268 267 267
300 301 301 301 299 297 295 293 292 291 289 289 289 287 286 285 285 282 280 281 280 277 276 276 276 276 275 275 274 273 273 272 271 270 269 269 268 268
300 301 301 300 299 297 295 294 293 292 291 290 289 288 288 287 285 284 282 282 281 278 277 277 277 276 274 274 274 274 273 273 273 271 269 267 267 267
300 301 302 301 300 297 296 295 295 294 293 292 291 290 290 289 288 286 284 282 282 280 279 279 279 278 275 274 274 275 274 274 273 271 269 267 266 266
300 300 300 301 302 299 297 297 296 296 294 292 292 291 291 290 288 287 285 284 283 281 281 280 279 278 277 275 274 275 275 274 273 272 271 269 268 268
298 299 300 300 301 300 298 298 297 296 293 292 292 291 291 290 289 287 287 285 285 284 284 283 282 281 280 278 277 275 275 275 274 273 272 271 270 269
298 299 300 300 300 299 299 298 298 297 295 293 292 292 291 291 290 289 288 286 285 284 285 286 286 284 283 281 279 276 275 275 274 274 272 271 270 269
296 299 299 300 300 299 299 299 299 297 296 295 293 293 292 291 290 288 287 286 286 284 285 287 287 285 285 283 281 279 277 276 275 275 273 271 270 269
295 297 298 299 300 300 299 299 299 298 297 296 295 294 293 291 289 288 287 287 288 286 286 287 287 285 284 284 283 281 279 277 276 275 274 273 271 269
294 295 297 297 298 298 299 299 299 298 297 297 297 295 293 292 290 288 288 288 288 288 288 287 287 286 284 283 283 282 281 278 277 276 274 272 271 268
Height
5861 5860 5859 5857 5856 5854 5852 5851 5850 5848 5847 5845 5843 5842 5841 5840 5838 5837 5836 5835 5834 5833 5831 5830 5829 5828 5827 5826 5826 5826 5826 5826 5827 5828 5829 5830 5832 5833
5858 5856 5855 5853 5852 5850 5848 5846 5845 5843 5842 5840 5838 5837 5836 5835 5833 5832 5831 5830 5828 5827 5826 5825 5824 5823 5822 5821 5821 5820 5821 5821 5822 5823 5824 5825 5827 5828
5854 5852 5851 5849 5847 5845 5843 5841 5839 5838 5836 5835 5833 5832 5830 5829 5828 5826 5825 5824 5823 5821 5820 5819 5818 5817 5816 5815 5815 5815 5815 5816 5817 5818 5818 5819 5821 5822
5849 5847 5846 5844 5842 5840 5838 5836 5834 5832 5830 5829 5827 5826 5824 5823 5821 5820 5818 5817 5816 5815 5814 5813 5812 5811 5811 5810 5809 5809 5809 5810 5811 5811 5812 5813 5814 5815
5844 5842 5840 5838 5836 5834 5832 5830 5828 5826 5824 5822 5821 5819 5817 5816 5815 5813 5812 5810 5809 5808 5807 5806 5806 5805 5804 5803 5803 5803 5803 5803 5804 5805 5806 5806 5808 5809
5838 5836 5834 5832 5830 5828 5825 5823 5821 5819 5817 5815 5814 5812 5810 5809 5807 5806 5805 5803 5802 5801 5800 5799 5798 5798 5797 5797 5796 5796 5796 5796 5797 5798 5798 5799 5800 5801
5832 5830 5828 5825 5823 5821 5819 5816 5814 5812 5810 5808 5806 5805 5803 5802 5800 5798 5797 5796 5795 5793 5793 5792 5791 5790 5790 5789 5788 5788 5788 5789 5789 5790 5790 5791 5792 5793
5825 5823 5820 5818 5816 5814 5812 5809 5807 5804 5803 5801 5799 5798 5796 5794 5792 5791 5789 5788 5787 5787 5785 5784 5783 5782 5782 5781 5781 5780 5780 5781 5781 5782 5783 5783 5784 5785
5818 5815 5813 5811 5809 5806 5804 5802 5799 5797 5795 5794 5792 5790 5788 5787 5785 5783 5782 5780 5779 5778 5777 5776 5775 5774 5773 5773 5772 5772 5772 5772 5773 5773 5774 5775 5776 5777
5810 5808 5805 5802 5800 5798 5795 5793 5791 5789 5787 5785 5784 5782 5780 5778 5777 5776 5774 5773 5772 5770 5769 5768 5767 5766 5765 5765 5764 5764 5764 5764 5764 5765 5765 5766 5767 5768
5803 5800 5797 5795 5792 5790 5787 5785 5783 5780 5778 5776 5775 5774 5772 5770 5769 5768 5766 5765 5764 5763 5761 5760 5759 5758 5757 5757 5756 5756 5755 5755 5755 5755 5756 5757 5758 5758
5796 5793 5790 5787 5784 5782 5779 5777 5775 5773 5771 5769 5767 5766 5764 5762 5761 5759 5758 5756 5755 5754 5753 5752 5751 5750 5749 5749 5748 5747 5747 5746 5746 5746 5747 5747 5747 5748
5789 5786 5783 5780 5777 5775 5772 5770 5767 5765 5763 5761 5759 5758 5756 5754 5752 5750 5749 5748 5746 5745 5744 5743 5742 5740 5740 5740 5739 5738 5738 5737 5737 5737 5737 5737 5738 5738
5781 5779 5776 5773 5770 5767 5765 5762 5760 5757 5755 5753 5751 5749 5748 5745 5743 5742 5740 5739 5737 5736 5735 5733 5732 5732 5731 5731 5730 5730 5729 5728 5728 5727 5727 5727 5727 5727
5774 5771 5768 5765 5762 5759 5756 5754 5751 5749 5747 5745 5743 5741 5739 5737 5734 5733 5731 5730 5728 5727 5725 5724 5723 5722 5722 5721 5721 5720 5719 5719 5718 5718 5717 5717 5717 5718
5767 5763 5760 5757 5753 5750 5748 5745 5743 5741 5738 5736 5733 5732 5730 5728 5726 5724 5722 5721 5719 5718 5716 5715 5714 5713 5712 5711 5710 5710 5709 5709 5708 5708 5707 5707 5707 5707
5759 5755 5752 5749 5745 5742 5739 5737 5734 5732 5730 5727 5725 5723 5721 5719 5717 5715 5713 5712 5710 5709 5707 5706 5705 5703 5702 5701 5700 5699 5699 5698 5698 5697 5697 5697 5696 5696
5751 5747 5744 5740 5737 5734 5731 5729 5726 5724 5721 5719 5717 5714 5712 5710 5708 5706 5705 5703 5701 5700 5698 5696 5695 5694 5693 5691 5691 5689 5688 5687 5687 5686 5686 5686 5686 5686
5742 5739 5736 5733 5729 5726 5724 5721 5718 5716 5713 5711 5709 5706 5704 5701 5699 5697 5695 5694 5692 5690 5689 5687 5685 5684 5683 5682 5681 5679 5677 5676 5675 5675 5674 5674 5674 5674
5734 5731 5728 5725 5722 5719 5716 5713 5710 5707 5705 5702 5700 5697 5695 5693 5690 5688 5686 5685 5683 5681 5679 5678 5676 5674 5672 5671 5669 5668 5666 5665 5664 5663 5663 5662 5662 5662
5726 5723 5720 5717 5714 5711 5708 5705 5701 5699 5696 5693 5691 5688 5686 5684 5681 5679 5677 5675 5673 5672 5670 5668 5666 5664 5661 5660 5659 5657 5656 5654 5653 5652 5651 5651 5651 5651
5718 5715 5712 5708 5705 5702 5699 5696 5693 5690 5687 5684 5681 5679 5677 5674 5672 5670 5668 5666 5664 5662 5660 5658 5656 5654 5652 5650 5648 5647 5645 5644 5642 5641 5640 5640 5639 5639
5708 5706 5703 5700 5696 5693 5691 5687 5684 5681 5678 5675 5673 5670 5667 5665 5663 5661 5659 5657 5655 5653 5650 5648 5646 5644 5642 5640 5638 5637 5635 5633 5632 5631 5631 5630 5629 5629